Location: Ermatingen
(47.6706°N, 9.0857°E)
Time: 05:43:41
(UTC+00:00)

Ariane Rocket - Pass Details

Date: 18 September 2020
Orbit: 760 x 769 km, 98.7° (Epoch: 27 October)

Event Time Altitude Azimuth Distance (km) Brightness Sun altitude
Exits shadow 19:49:57 - 197° (SSW) 2,361 5.4 -23.4°
Reaches altitude 10° 19:50:09 10° 198° (SSW) 2,292 5.3 -23.4°
Maximum altitude 19:54:45 35° 263° (W) 1,228 4.4 -24.1°
Drops below altitude 10° 19:59:23 10° 329° (NNW) 2,314 6.3 -24.7°
Sets 20:01:55 0° 338° (NNW) 3,247 7.1 -25.1°
